Wind_Speed
43 42 44 45 44 44 44 44 45 43 44 42 42 43 44 44 44 43 42 43 43 43 42 42 41 42 42 41 41 41 41 41 42 43 44 44 44 44 45 46 46 48 48 49
42 42 43 45 45 44 44 44 44 44 43 41 42 43 43 43 43 44 43 43 43 43 42 42 42 41 41 41 40 40 40 40 41 41 42 43 43 42 42 44 45 45 45 45
44 42 45 46 43 43 44 43 43 44 42 41 42 42 42 43 43 43 44 43 43 42 42 41 40 40 39 39 39 40 40 39 39 40 41 42 42 42 42 42 42 42 42 42
45 45 48 46 43 43 43 42 42 43 42 42 42 42 42 42 43 43 43 43 43 42 41 40 40 39 38 38 39 39 39 39 38 38 39 39 40 40 39 39 39 40 40 40
46 47 49 46 43 42 42 42 42 43 42 42 42 43 43 42 43 42 42 42 42 41 40 40 39 38 38 38 38 38 38 37 37 37 37 37 37 38 38 38 37 38 38 38
46 48 48 44 42 42 43 44 42 43 42 43 43 43 42 42 42 42 42 42 42 41 40 39 39 39 38 38 38 37 37 36 36 37 37 36 36 36 36 36 36 37 37 38
45 46 47 44 43 43 44 44 43 43 43 43 43 43 42 42 42 42 42 42 41 40 39 39 38 38 38 38 37 36 35 35 35 36 35 35 35 35 36 36 35 35 35 35
42 44 44 42 43 43 43 44 44 44 43 43 43 42 42 42 42 42 41 40 39 38 38 38 38 38 38 37 37 36 35 34 34 34 34 34 34 34 35 35 35 34 33 33
38 40 40 40 41 41 42 43 44 44 43 43 43 42 42 42 41 41 40 39 39 39 38 39 39 39 38 37 37 36 36 35 33 33 33 33 33 34 34 35 34 34 33 32
38 37 37 38 39 40 41 42 42 42 42 43 42 42 41 41 41 40 39 39 39 39 38 39 39 39 38 37 37 36 35 34 33 33 32 32 33 33 33 33 33 33 32 32
39 38 38 38 39 40 40 41 41 41 41 41 41 41 40 40 40 39 39 39 39 39 39 39 38 38 37 37 36 35 34 33 33 32 32 32 32 32 32 31 31 31 31 32
37 37 38 38 39 39 40 40 40 40 40 40 40 40 40 40 39 39 39 39 39 39 38 38 37 36 35 35 35 34 33 33 33 33 32 32 32 31 31 31 30 31 31 31
36 36 37 37 37 38 38 38 39 39 39 39 39 39 39 39 38 38 38 38 38 37 37 36 36 35 34 34 34 33 32 32 32 32 32 31 31 30 29 29 29 29 29 30
35 35 36 37 37 37 37 38 38 39 39 38 38 38 38 37 38 38 38 38 37 36 35 35 34 34 34 33 32 32 31 31 31 31 31 30 30 29 28 28 28 29 29 29
33 35 36 36 37 37 38 38 38 38 37 37 37 37 37 37 37 37 37 36 36 35 34 34 33 33 33 32 31 31 31 31 30 30 29 28 28 27 27 27 27 27 28 27
33 34 35 35 35 35 36 36 36 36 37 37 37 37 37 36 35 35 35 35 35 34 34 33 33 32 32 31 31 30 30 30 29 28 27 26 26 26 26 26 26 26 27 27
32 32 32 33 33 33 33 34 35 35 35 36 36 36 35 35 34 34 33 33 33 33 33 33 32 32 31 31 30 30 29 29 29 27 26 26 25 25 25 24 24 25 25 26
30 30 30 30 31 32 33 34 34 34 35 35 35 34 34 33 33 33 33 32 33 33 33 33 32 31 30 30 29 29 28 28 27 26 25 24 24 24 24 23 23 23 23 24
28 28 29 30 31 31 32 32 33 33 33 33 33 33 32 32 33 33 32 32 32 32 32 31 30 30 29 29 28 27 25 25 24 24 23 22 22 23 23 22 22 21 22 22
26 26 27 27 28 29 30 31 31 32 32 31 31 31 31 32 32 32 32 31 31 30 29 28 28 28 27 27 26 25 24 24 23 23 22 22 22 22 22 21 21 20 20 20
24 25 26 26 27 27 28 28 29 29 29 29 29 30 30 31 31 31 31 31 30 29 28 27 27 26 25 25 24 24 24 24 23 23 23 22 22 22 21 20 19 19 19 19
23 24 25 25 26 26 26 27 27 28 29 29 30 30 30 31 31 31 31 30 29 28 27 27 26 26 25 24 23 23 23 22 22 22 21 21 21 21 20 19 18 18 18 18
23 24 25 25 25 25 26 26 27 28 28 29 29 30 30 29 29 29 29 28 27 27 26 26 25 24 23 23 22 22 21 21 21 20 20 20 19 18 18 17 17 17 16 16
24 24 24 24 24 25 25 26 27 27 27 28 28 28 27 27 27 27 26 26 25 24 24 24 23 22 21 21 20 19 19 18 19 18 18 17 17 16 16 16 16 16 15 15
23 23 23 23 23 24 24 24 25 25 25 26 25 25 24 24 24 23 23 23 23 22 22 22 21 21 20 19 18 17 17 17 16 16 16 15 15 15 14 14 14 14 14 13
22 22 22 22 23 23 23 23 23 23 24 23 22 22 22 22 21 21 21 21 20 20 20 20 19 18 18 17 17 16 16 15 15 14 14 14 14 14 14 14 14 14 13 13
21 21 22 22 22 21 21 21 21 21 20 20 20 20 19 19 19 19 18 18 18 18 18 17 17 17 16 16 16 15 14 14 14 13 13 12 12 11 11 12 12 12 12 12
Wind_Direction
261 261 262 263 265 266 269 271 272 274 276 279 279 280 282 284 286 287 288 289 290 290 289 288 286 286 285 283 282 281 280 279 277 275 274 274 273 271 269 268 267 264 262 261
260 260 261 262 263 266 269 270 272 273 275 278 278 279 281 283 285 286 288 288 289 290 289 288 287 286 285 284 282 282 282 280 278 276 275 274 273 272 270 269 268 264 261 262
262 262 263 263 265 267 268 269 270 273 275 276 277 278 280 281 284 286 288 288 288 289 288 288 288 287 285 284 283 283 282 282 280 277 275 274 273 272 272 270 268 266 264 264
263 263 264 267 267 267 268 269 271 273 274 275 277 279 280 282 284 285 287 288 288 288 287 287 287 287 287 285 284 284 283 282 280 279 278 276 274 273 272 270 269 267 265 265
263 265 266 266 267 268 269 269 271 273 274 276 277 279 281 282 283 284 286 288 288 288 287 287 287 286 287 287 285 283 283 283 280 279 278 277 274 272 272 270 268 266 267 265
263 264 266 267 267 267 269 270 271 273 275 277 279 280 281 282 283 284 286 287 288 288 287 287 287 286 286 286 285 283 283 282 280 280 279 276 274 272 271 270 268 267 266 264
262 264 266 268 268 268 270 272 272 273 275 277 279 280 281 282 283 284 285 286 286 286 287 287 288 287 286 286 286 285 283 282 281 279 277 276 273 272 271 270 270 268 266 264
263 264 267 268 268 269 271 272 273 274 275 277 278 279 280 282 283 284 284 285 285 285 285 286 288 288 286 285 285 284 283 282 281 280 278 275 273 272 272 271 270 269 267 265
262 264 266 268 269 270 271 272 273 275 275 276 278 279 280 281 282 283 283 284 284 284 285 286 287 286 285 283 282 282 281 281 280 279 278 276 274 272 270 270 270 269 267 263
261 262 264 265 265 266 267 270 272 273 274 275 277 278 279 280 281 282 282 283 285 285 285 285 285 284 283 282 281 281 281 280 279 278 277 275 275 273 271 270 268 267 264 263
262 262 262 263 265 266 267 269 272 273 274 275 277 278 279 280 280 281 282 282 284 285 286 286 285 284 282 282 282 281 280 279 279 279 277 275 275 274 272 270 269 266 264 264
263 262 264 265 266 267 269 270 272 273 274 275 277 279 279 280 280 281 282 282 284 285 285 285 284 283 282 282 283 282 280 279 278 279 278 278 275 272 271 270 267 265 264 265
265 264 265 266 266 268 270 272 272 273 275 276 277 278 278 278 279 280 281 282 283 283 284 284 283 282 281 281 282 281 279 279 278 278 277 277 275 272 269 268 267 266 266 266
265 265 266 266 266 268 270 271 273 274 275 275 276 277 278 279 279 280 280 281 281 282 282 282 283 283 282 281 281 280 279 279 279 279 277 275 273 271 269 267 264 265 267 267
265 265 267 268 268 269 270 272 273 273 274 275 275 276 278 280 281 281 281 280 280 280 280 281 282 281 281 281 281 280 280 280 279 279 277 274 272 270 268 267 265 264 265 266
266 267 268 269 269 269 270 271 272 273 275 276 277 278 279 280 281 281 281 280 279 278 278 279 280 280 280 281 281 280 281 281 280 279 277 273 272 270 268 267 266 264 264 263
269 269 269 269 269 269 271 272 273 274 275 277 278 279 279 279 280 280 280 280 279 278 278 278 280 280 280 281 282 281 280 280 280 278 275 273 270 269 268 269 267 265 264 262
271 271 271 271 271 272 273 274 275 275 276 278 279 279 279 278 279 279 279 279 279 279 278 278 279 279 280 281 281 282 280 279 278 276 274 272 270 269 268 268 267 266 264 262
274 274 274 274 274 274 273 275 276 278 279 279 279 278 277 277 277 278 279 279 279 279 278 278 277 277 278 279 280 280 280 279 276 274 272 270 269 269 268 268 268 267 264 263
276 276 277 277 277 277 277 277 278 279 280 280 279 278 277 277 277 277 278 279 279 278 278 277 277 277 277 276 276 278 278 278 275 272 270 268 268 268 269 270 270 267 264 262
280 279 279 279 279 280 280 280 280 280 280 280 280 279 279 278 277 277 277 278 278 277 277 277 277 277 275 274 276 277 277 275 272 270 269 267 267 266 267 268 268 266 262 259
283 282 282 282 282 282 282 281 281 280 281 281 281 280 280 279 277 277 277 277 276 275 275 275 275 275 274 274 275 276 274 272 269 269 268 267 265 264 263 264 265 264 262 260
285 285 284 283 283 282 282 282 282 283 283 283 282 281 280 280 279 277 277 276 275 274 273 274 274 273 272 272 273 274 272 269 267 266 266 264 262 260 259 259 261 261 258 256
287 287 286 285 284 284 284 284 284 285 285 284 284 283 282 281 280 279 277 275 273 272 273 272 271 271 270 270 271 271 268 267 265 263 263 261 260 258 257 255 256 255 253 251
288 288 287 286 286 287 286 286 287 288 288 287 286 284 283 282 281 279 277 274 272 272 271 270 269 268 267 266 267 267 266 265 263 261 260 260 259 256 253 251 250 249 249 248
289 289 289 289 290 289 289 289 289 289 290 289 288 285 283 283 282 279 277 275 273 271 269 268 266 264 263 263 263 264 265 263 259 259 258 258 258 255 251 247 244 244 244 241
292 292 292 291 292 291 290 291 291 291 291 291 290 288 285 284 283 281 279 276 272 269 267 265 262 261 261 261 262 262 261 259 258 256 256 254 253 251 246 240 238 238 236 230
Height
5566 5568 5567 5568 5571 5571 5571 5572 5571 5574 5574 5576 5574 5571 5569 5567 5565 5564 5562 5559 5556 5554 5551 5548 5546 5543 5541 5538 5535 5532 5530 5529 5527 5525 5524 5523 5522 5521 5521 5522 5522 5522 5524 5525
5554 5556 5555 5556 5560 5561 5561 5561 5560 5561 5563 5565 5562 5560 5558 5556 5555 5553 5551 5548 5546 5544 5541 5538 5535 5532 5530 5527 5524 5521 5519 5517 5515 5513 5512 5511 5510 5510 5510 5510 5509 5510 5511 5512
5541 5543 5541 5544 5551 5551 5551 5551 5551 5550 5553 5553 5550 5549 5547 5546 5544 5542 5540 5537 5535 5533 5530 5528 5525 5522 5519 5516 5513 5510 5508 5506 5504 5502 5501 5500 5499 5498 5498 5498 5498 5498 5499 5500
5528 5530 5529 5538 5540 5540 5539 5540 5540 5539 5540 5540 5538 5537 5536 5535 5533 5531 5529 5527 5524 5522 5519 5517 5514 5511 5508 5506 5503 5500 5497 5495 5493 5492 5490 5489 5488 5487 5487 5486 5486 5487 5488 5489
5517 5516 5517 5525 5528 5529 5527 5528 5530 5528 5528 5528 5527 5525 5526 5524 5522 5520 5518 5516 5513 5511 5508 5506 5503 5500 5498 5495 5492 5490 5487 5485 5483 5481 5479 5478 5477 5477 5476 5476 5476 5477 5477 5478
5506 5505 5506 5515 5517 5516 5515 5515 5519 5517 5517 5516 5515 5515 5515 5513 5511 5509 5507 5504 5502 5500 5497 5495 5492 5490 5487 5484 5482 5479 5477 5475 5473 5471 5469 5468 5467 5466 5466 5466 5466 5466 5467 5467
5495 5494 5496 5503 5504 5504 5505 5506 5506 5505 5505 5505 5504 5503 5502 5501 5500 5497 5495 5493 5491 5488 5486 5484 5481 5479 5476 5474 5471 5469 5466 5465 5463 5461 5459 5458 5457 5456 5456 5456 5456 5456 5457 5457
5485 5485 5489 5491 5492 5493 5493 5493 5492 5493 5493 5493 5492 5491 5490 5489 5488 5486 5484 5482 5480 5477 5475 5473 5470 5468 5465 5463 5461 5459 5457 5455 5453 5452 5450 5449 5448 5447 5446 5446 5446 5446 5447 5448
5475 5477 5478 5478 5479 5480 5480 5480 5480 5480 5481 5481 5480 5480 5479 5477 5476 5474 5472 5471 5469 5467 5464 5462 5459 5457 5455 5453 5451 5449 5447 5445 5444 5443 5441 5439 5438 5437 5437 5436 5436 5437 5437 5438
5463 5466 5467 5467 5467 5468 5468 5468 5469 5469 5469 5469 5468 5468 5467 5466 5465 5463 5461 5459 5457 5455 5453 5451 5449 5446 5444 5442 5440 5438 5437 5436 5434 5433 5432 5430 5429 5428 5427 5427 5427 5427 5427 5428
5452 5455 5456 5456 5456 5457 5457 5457 5457 5458 5457 5457 5457 5456 5456 5454 5453 5451 5450 5448 5446 5444 5442 5440 5437 5435 5433 5431 5429 5428 5427 5425 5424 5423 5422 5421 5420 5418 5417 5417 5417 5418 5419 5419
5442 5444 5444 5445 5446 5446 5446 5447 5447 5447 5447 5446 5445 5445 5444 5443 5441 5440 5438 5436 5435 5433 5431 5429 5426 5425 5423 5421 5419 5418 5417 5416 5414 5413 5412 5411 5410 5409 5408 5408 5408 5408 5409 5410
5432 5433 5433 5434 5435 5435 5436 5436 5436 5436 5435 5435 5434 5433 5432 5431 5430 5428 5427 5425 5423 5422 5420 5418 5416 5414 5412 5411 5409 5408 5407 5406 5404 5403 5402 5401 5400 5399 5400 5400 5399 5399 5400 5400
5422 5422 5423 5424 5425 5425 5425 5425 5425 5425 5424 5424 5423 5422 5421 5420 5418 5417 5415 5414 5412 5411 5409 5407 5406 5404 5403 5401 5400 5398 5397 5396 5395 5393 5392 5391 5391 5390 5390 5391 5391 5391 5391 5392
5412 5413 5413 5413 5414 5414 5414 5414 5414 5414 5413 5412 5412 5411 5410 5408 5407 5406 5404 5403 5402 5400 5399 5397 5396 5395 5393 5392 5390 5389 5388 5386 5385 5384 5383 5382 5382 5382 5382 5382 5383 5383 5383 5384
5403 5403 5403 5403 5403 5404 5403 5403 5403 5403 5402 5402 5401 5400 5399 5397 5396 5395 5393 5392 5391 5390 5389 5388 5386 5385 5384 5382 5381 5380 5379 5377 5376 5375 5374 5374 5373 5373 5374 5374 5374 5375 5375 5376
5393 5393 5393 5393 5393 5393 5393 5393 5393 5392 5392 5391 5390 5389 5388 5387 5386 5385 5383 5382 5381 5380 5379 5378 5377 5375 5374 5373 5372 5371 5370 5369 5368 5367 5366 5365 5365 5365 5366 5366 5366 5366 5367 5367
5384 5384 5384 5384 5384 5384 5383 5383 5382 5382 5381 5380 5379 5378 5377 5376 5375 5374 5373 5372 5371 5370 5369 5368 5367 5366 5365 5364 5363 5362 5361 5360 5359 5358 5358 5358 5358 5358 5358 5358 5358 5359 5359 5359
5376 5376 5375 5375 5374 5374 5374 5373 5372 5371 5370 5369 5368 5367 5367 5366 5365 5364 5363 5362 5361 5360 5359 5358 5357 5356 5355 5355 5354 5353 5352 5351 5351 5351 5351 5351 5351 5351 5351 5351 5351 5351 5351 5352
5368 5368 5367 5366 5365 5365 5364 5363 5363 5362 5361 5359 5358 5358 5357 5356 5355 5354 5354 5353 5351 5350 5350 5349 5348 5347 5347 5346 5345 5345 5344 5344 5343 5343 5344 5344 5344 5344 5344 5344 5344 5344 5345 5345
5361 5360 5359 5358 5357 5356 5355 5354 5353 5352 5351 5350 5349 5348 5347 5346 5345 5345 5344 5343 5342 5341 5341 5340 5339 5339 5338 5338 5337 5337 5336 5336 5336 5336 5336 5337 5337 5337 5337 5338 5338 5338 5339 5339
5354 5353 5351 5350 5349 5348 5347 5346 5345 5344 5343 5341 5340 5339 5338 5337 5336 5335 5334 5334 5333 5332 5332 5331 5331 5330 5330 5330 5329 5329 5328 5328 5329 5329 5329 5330 5330 5330 5331 5331 5332 5332 5333 5333
5347 5345 5344 5343 5341 5340 5339 5337 5336 5335 5334 5332 5331 5329 5328 5327 5326 5326 5325 5324 5323 5323 5323 5322 5322 5322 5322 5322 5322 5322 5321 5321 5322 5322 5322 5323 5323 5324 5325 5326 5326 5327 5328 5328
5339 5338 5336 5335 5334 5332 5331 5329 5328 5326 5324 5323 5321 5320 5319 5318 5317 5316 5316 5315 5315 5314 5314 5314 5314 5314 5314 5314 5315 5315 5315 5315 5315 5315 5316 5317 5318 5318 5319 5320 5321 5322 5323 5324
5332 5331 5329 5328 5326 5325 5323 5321 5320 5318 5316 5314 5313 5311 5310 5309 5308 5308 5307 5306 5306 5306 5306 5306 5306 5306 5307 5307 5308 5308 5309 5309 5309 5310 5311 5311 5312 5313 5314 5315 5316 5317 5318 5319
5325 5324 5322 5320 5319 5317 5316 5314 5312 5310 5308 5307 5305 5303 5302 5301 5300 5300 5299 5299 5299 5299 5299 5299 5299 5300 5300 5301 5302 5303 5303 5303 5304 5305 5306 5307 5307 5308 5309 5310 5312 5313 5314 5316
5319 5317 5315 5314 5312 5310 5309 5307 5305 5303 5301 5300 5298 5296 5295 5294 5293 5293 5292 5292 5292 5292 5293 5293 5293 5294 5295 5296 5297 5297 5298 5298 5299 5300 5301 5302 5303 5304 5305 5306 5308 5309 5311 5312